Terminal Aerodrome Forecast
Issued by NWS

Home | Current Version | Previous Version | Text Only | Print | Product List | Glossary On
Versions: 1 2 3 4 5 6 7 8 9 10 11 12 13 14 15 16 17 18 19 20 21 22 23 24 25 26 27 28
000
FTUS45 KGJT 300412 AAA
TAFTEX
TAF AMD
KTEX 300412Z 3004/3024 20004KT P6SM VCSH BKN040 OVC050
     FM300600 12004KT P6SM VCSH OVC030
     FM301100 16005KT P6SM VCSH OVC015
     FM301800 VRB03KT 3SM -SN BR OVC015=

USA.gov is the U.S. government's official web portal to all federal, state and local government web resources and services.